Location: Unspecified
(49.2170°N, 0.0000°E)
Time: 05:01:44
(UTC+00:00)

Transit 2A - Pass Details

Date: 23 June 2019
Orbit: 594 x 964 km, 66.7° (Epoch: 20 July)

Event Time Altitude Azimuth Distance (km) Brightness Sun altitude
Rises 05:05:37 0° 311° (NW) 3,602 9.2 8.9°
Reaches altitude 10° 05:09:32 10° 334° (NNW) 2,603 8.8 9.5°
Maximum altitude 05:12:51 15° 7° (N) 2,216 8.9 10.0°
Drops below altitude 10° 05:16:01 10° 41° (NE) 2,479 10.1 10.4°
Sets 05:19:35 0° 65° (ENE) 3,328 11.6 11.0°
